Wind_Speed
22 20 19 20 21 22 24 25 23 23 21 18 17 20 22 27 28 29 33 31 23 22 28 28 29 29 30 30 29 27 28 28 30 34 36 37 38 39 41 44 45 46 47 47
22 21 22 22 22 23 24 22 18 18 21 21 21 24 27 30 31 35 37 34 29 26 24 25 29 31 32 32 32 31 31 33 36 40 43 44 45 48 51 53 53 53 54 54
22 21 23 23 24 26 21 20 20 22 25 28 30 30 32 28 30 34 36 34 30 27 24 26 32 35 37 38 40 42 42 40 42 46 48 49 53 58 60 59 58 56 53 52
23 23 25 25 25 26 23 22 24 25 27 32 35 39 37 33 37 33 34 34 32 29 27 29 35 38 39 40 45 48 51 49 50 53 55 57 60 61 58 54 51 49 49 54
21 22 23 26 27 25 24 24 25 26 26 28 30 39 40 35 32 29 30 32 33 30 30 33 38 42 43 44 47 50 54 56 59 58 59 60 60 59 59 59 56 53 52 55
18 20 23 24 23 21 21 22 23 25 27 27 24 29 32 29 29 28 29 31 32 33 35 37 40 44 46 48 49 50 55 59 61 62 63 64 65 63 67 70 72 67 60 62
20 20 23 25 26 25 24 24 26 28 27 26 21 23 28 30 30 31 31 33 35 36 38 38 39 41 44 47 53 57 60 61 64 67 70 74 75 72 75 77 75 73 69 74
23 24 25 28 28 27 29 30 28 29 26 24 22 24 27 32 34 35 33 33 38 39 39 41 45 48 52 56 60 63 64 70 74 76 75 77 78 78 74 71 71 73 73 74
20 20 23 26 29 31 33 31 29 30 30 27 24 25 28 32 31 35 35 37 40 43 45 48 55 59 59 60 64 69 73 77 78 75 75 74 71 69 63 63 73 71 69 72
26 22 23 24 27 29 31 33 32 32 34 29 23 22 27 33 36 40 42 42 44 49 53 57 61 62 65 69 71 71 72 75 78 72 69 73 71 77 79 76 73 66 61 62
35 34 28 26 29 32 31 35 38 40 38 31 24 26 27 33 35 41 46 48 51 55 59 62 66 69 72 74 73 73 75 77 77 74 72 71 70 69 66 59 52 48 51 53
40 39 35 29 27 30 34 37 37 35 33 32 30 31 32 39 44 48 52 55 59 62 64 67 69 73 76 77 76 76 73 66 60 56 52 50 48 49 50 53 52 50 52 52
38 40 38 36 32 32 33 34 34 33 32 31 32 36 38 42 47 51 55 58 61 65 67 69 72 75 74 72 68 64 56 54 53 51 46 45 46 48 53 52 52 55 54 49
38 40 40 40 37 31 29 29 30 31 33 35 36 39 43 46 48 52 57 60 63 68 69 68 66 64 63 61 58 55 54 53 49 45 43 47 52 57 58 54 54 53 46 40
38 40 40 38 34 32 29 28 29 31 35 37 39 41 44 46 49 50 51 54 57 60 61 60 59 57 56 54 52 51 52 52 50 52 53 56 62 58 50 48 45 38 33 30
34 35 36 35 34 32 31 31 32 33 35 37 40 43 45 46 48 49 49 51 53 57 58 59 59 56 53 50 49 50 53 53 54 55 59 62 53 44 40 36 31 26 23 22
31 33 33 33 31 32 33 34 35 37 38 40 43 46 48 50 50 50 51 52 54 57 58 57 53 50 50 50 50 52 53 54 56 57 53 43 33 30 29 24 20 19 18 17
32 31 31 31 31 32 36 38 39 41 44 46 48 50 51 48 46 47 49 51 54 57 54 49 46 48 50 51 53 52 50 50 49 43 32 25 25 21 16 15 15 16 15 14
32 31 30 31 32 34 36 38 40 43 46 48 50 49 47 46 47 48 48 52 55 55 50 44 45 46 47 47 47 44 42 42 38 29 23 19 13 10 11 13 14 13 15 18
30 30 31 32 33 35 38 39 41 45 48 47 48 48 48 48 47 47 47 49 49 46 43 44 46 46 45 42 41 41 39 32 23 15 9 6 6 8 11 14 16 16 16 14
28 29 31 33 36 38 40 43 46 48 49 50 51 51 49 46 44 42 40 38 36 37 39 41 41 41 41 41 38 30 18 8 3 3 4 6 7 9 14 17 15 13 13 13
29 31 33 35 38 40 41 43 45 47 47 46 46 42 38 35 34 34 33 33 34 33 33 36 36 36 33 25 16 6 5 8 7 5 5 8 9 12 14 12 14 16 16 16
30 32 35 37 40 41 41 42 44 44 43 40 37 31 29 29 29 31 31 29 27 28 30 28 24 16 7 5 7 11 12 11 10 8 7 8 9 10 13 13 14 14 14 15
32 34 36 38 39 40 40 41 39 37 35 32 29 27 26 26 26 26 24 23 25 24 18 11 6 10 13 16 16 16 15 14 13 13 12 13 15 15 13 13 12 13 13 14
35 36 38 38 37 38 37 35 32 30 29 28 28 25 23 22 21 22 20 22 18 10 11 17 20 20 21 23 22 21 19 20 22 27 29 27 23 17 15 14 13 15 17 19
36 36 36 35 35 33 29 27 25 23 22 23 24 24 19 17 18 17 16 9 12 23 25 22 22 26 30 34 37 38 37 36 34 32 28 24 20 18 16 17 18 20 21 23
Wind_Direction
273 272 265 260 259 252 247 252 250 257 269 267 268 275 283 288 293 300 304 305 310 307 303 302 299 299 296 295 295 293 293 296 300 301 300 298 298 297 294 290 287 285 284 284
269 265 260 258 261 257 249 248 244 252 265 263 257 262 269 274 289 301 298 298 300 300 301 299 296 295 293 290 287 284 287 294 299 303 304 302 303 303 300 294 289 286 284 283
264 261 260 258 255 254 250 245 238 234 247 257 261 264 272 285 289 286 286 288 289 293 294 295 291 290 292 292 287 286 288 294 301 305 304 301 302 303 301 295 290 287 284 283
256 252 255 253 248 251 254 251 246 241 243 256 268 272 273 274 275 271 270 275 279 281 286 288 287 287 287 288 287 284 288 292 297 300 300 297 300 303 301 297 289 286 286 291
257 255 254 258 260 262 269 272 269 267 261 259 260 264 265 263 263 267 265 265 271 275 276 275 274 277 280 282 286 288 291 297 300 300 297 295 297 299 298 296 290 284 282 289
258 259 261 264 269 266 258 260 261 264 267 266 260 261 266 264 267 266 261 267 270 268 269 271 272 276 279 284 289 294 298 302 303 302 301 300 302 301 299 297 293 286 278 286
250 240 247 255 260 267 267 265 261 259 266 269 269 271 279 283 282 276 272 271 272 278 284 283 282 285 288 293 296 298 299 299 300 301 300 298 298 297 296 295 288 282 284 291
249 242 240 243 246 256 266 269 276 282 284 282 284 288 283 277 278 280 281 282 281 280 282 285 287 289 292 294 295 295 294 296 297 297 296 294 294 293 292 292 288 286 287 288
256 246 249 248 251 262 270 275 275 280 285 290 294 284 273 272 267 269 272 276 281 284 285 286 289 290 289 287 288 287 288 291 293 294 296 295 292 286 285 288 291 291 287 285
271 264 257 252 256 264 270 272 274 277 282 287 289 275 265 262 263 262 265 268 272 275 277 280 284 284 284 288 290 291 291 291 293 290 288 287 288 286 294 297 294 294 295 293
269 271 269 257 257 264 266 276 278 279 280 282 275 262 261 264 266 271 276 280 283 285 287 288 289 289 291 293 293 292 291 291 291 291 292 291 288 288 290 291 288 291 292 292
264 269 275 275 270 267 269 273 275 275 275 273 265 265 267 269 275 280 284 288 292 293 291 290 290 289 288 289 289 289 291 294 295 298 299 297 295 296 295 298 297 296 295 293
266 270 275 277 274 272 273 274 275 275 275 275 273 274 278 279 282 285 286 288 288 286 285 285 285 286 287 289 290 292 294 296 296 297 294 294 295 296 298 296 294 294 295 295
268 270 273 275 278 275 270 267 268 271 275 277 276 278 282 284 286 289 289 288 287 286 286 284 285 288 290 293 296 296 297 297 297 295 292 294 300 299 298 296 296 297 297 294
263 265 268 271 273 274 273 270 270 271 273 275 277 277 281 286 289 289 288 286 286 285 285 288 291 293 295 297 297 296 298 298 295 295 295 298 302 302 301 300 301 301 299 295
254 258 262 266 270 274 276 275 272 273 275 279 282 285 292 295 293 291 288 287 285 285 288 292 294 294 295 296 297 296 297 297 295 295 295 301 305 304 302 303 306 308 306 303
250 252 256 261 266 271 272 276 280 283 285 288 290 293 297 297 294 292 290 289 287 286 288 290 290 290 291 292 294 296 295 294 296 298 302 306 306 305 306 308 311 312 310 308
258 258 260 265 268 271 277 281 287 292 295 296 296 297 296 294 291 288 286 286 287 290 293 291 291 291 293 295 297 298 298 298 302 306 311 310 309 313 320 324 323 320 317 314
265 269 271 273 276 280 285 290 293 294 294 297 297 295 293 294 293 291 290 292 293 294 295 294 294 296 297 298 299 300 302 305 308 310 311 311 317 331 336 336 331 325 316 314
263 267 272 277 281 285 288 290 292 293 293 296 295 292 292 293 290 285 286 289 289 291 292 295 297 298 300 300 301 304 305 307 307 308 319 342 355 352 349 345 340 338 333 329
260 266 272 278 284 289 292 296 297 296 298 297 297 297 299 299 295 293 292 293 294 296 297 298 299 301 300 300 302 306 313 335 15 59 48 22 14 4 351 345 357 12 18 23
274 279 284 289 292 293 294 294 294 296 297 298 299 302 301 300 298 296 297 299 301 304 306 306 307 307 306 305 311 336 80 87 83 83 44 31 24 4 6 36 54 51 42 37
278 285 288 290 291 293 293 293 294 296 298 300 300 299 297 297 296 298 300 303 308 311 314 316 320 327 348 43 78 95 100 92 87 80 58 48 40 45 60 63 58 49 36 25
282 285 286 287 289 290 290 291 294 295 296 297 297 299 296 294 298 304 309 312 317 326 336 344 44 86 89 90 90 93 98 94 87 80 75 77 83 84 68 59 44 27 13 1
283 286 287 287 286 283 282 285 286 288 294 296 293 289 288 291 300 306 313 320 337 30 82 99 100 97 93 91 89 88 87 87 94 98 96 90 84 74 58 40 20 3 352 344
281 282 281 278 277 276 277 277 286 287 285 285 286 290 289 289 300 313 325 351 101 114 111 102 94 96 99 99 96 93 93 94 94 91 86 79 69 55 37 18 4 355 351 345
Height
5851 5852 5851 5850 5850 5850 5848 5848 5849 5847 5847 5848 5847 5847 5848 5846 5846 5846 5845 5844 5844 5843 5839 5837 5836 5835 5833 5832 5831 5830 5826 5823 5821 5819 5817 5814 5811 5808 5804 5799 5796 5792 5789 5786
5846 5846 5845 5844 5844 5845 5844 5844 5844 5844 5843 5843 5843 5844 5844 5844 5844 5843 5840 5838 5837 5836 5834 5832 5830 5829 5827 5825 5822 5820 5818 5816 5813 5811 5809 5806 5803 5798 5794 5789 5785 5781 5778 5775
5839 5841 5839 5839 5839 5839 5838 5839 5839 5840 5840 5839 5839 5841 5840 5843 5841 5838 5833 5832 5830 5829 5829 5828 5825 5822 5819 5817 5814 5811 5809 5807 5805 5802 5798 5795 5792 5787 5783 5778 5772 5768 5765 5760
5833 5834 5833 5834 5834 5833 5833 5834 5834 5835 5837 5836 5836 5834 5837 5837 5833 5830 5827 5824 5823 5822 5822 5820 5818 5815 5813 5810 5805 5802 5799 5797 5794 5790 5785 5781 5777 5773 5768 5763 5758 5754 5749 5744
5828 5827 5827 5827 5827 5829 5829 5829 5829 5829 5830 5831 5832 5828 5827 5827 5825 5823 5821 5818 5816 5814 5814 5812 5811 5807 5805 5802 5797 5794 5792 5787 5783 5780 5774 5769 5764 5759 5754 5750 5745 5741 5737 5730
5824 5823 5822 5822 5821 5823 5822 5823 5823 5822 5822 5822 5824 5821 5819 5819 5818 5815 5812 5809 5806 5804 5803 5801 5800 5799 5797 5794 5790 5786 5782 5776 5772 5767 5760 5754 5749 5744 5739 5734 5729 5725 5720 5715
5816 5817 5816 5816 5815 5814 5815 5816 5817 5816 5817 5816 5817 5816 5813 5808 5807 5804 5803 5801 5799 5797 5795 5793 5792 5790 5786 5783 5780 5775 5771 5765 5759 5754 5748 5741 5735 5730 5724 5717 5710 5707 5702 5697
5810 5811 5811 5810 5810 5810 5808 5809 5810 5809 5809 5809 5810 5808 5806 5800 5798 5796 5794 5792 5790 5789 5787 5784 5781 5780 5777 5773 5769 5763 5757 5751 5744 5738 5732 5726 5720 5713 5706 5699 5692 5687 5682 5676
5803 5806 5805 5805 5805 5804 5803 5804 5803 5802 5800 5801 5802 5800 5797 5792 5790 5788 5786 5783 5781 5778 5776 5774 5771 5768 5765 5761 5757 5751 5747 5739 5730 5722 5715 5708 5701 5694 5687 5681 5676 5671 5664 5659
5796 5800 5801 5801 5800 5800 5798 5796 5798 5797 5795 5795 5796 5793 5789 5783 5782 5780 5778 5777 5775 5771 5768 5766 5761 5756 5751 5746 5740 5735 5730 5722 5713 5706 5699 5693 5688 5679 5672 5667 5663 5654 5647 5640
5789 5791 5794 5796 5795 5793 5792 5788 5785 5784 5786 5787 5786 5786 5783 5777 5773 5770 5768 5766 5764 5760 5756 5749 5742 5736 5732 5728 5723 5717 5712 5704 5696 5688 5681 5675 5670 5666 5661 5655 5648 5640 5634 5628
5781 5783 5785 5787 5788 5786 5783 5780 5779 5779 5777 5778 5777 5777 5776 5770 5766 5762 5757 5753 5750 5743 5739 5734 5729 5722 5715 5711 5705 5699 5692 5685 5678 5672 5666 5660 5655 5651 5646 5639 5632 5625 5621 5615
5774 5776 5777 5777 5781 5779 5776 5773 5771 5771 5771 5771 5768 5768 5764 5761 5758 5754 5748 5742 5736 5729 5725 5722 5715 5708 5701 5693 5686 5680 5676 5671 5665 5659 5654 5649 5644 5639 5633 5626 5620 5614 5608 5603
5767 5767 5768 5768 5767 5768 5767 5766 5764 5763 5763 5760 5758 5755 5753 5750 5749 5745 5737 5729 5721 5713 5707 5703 5698 5692 5685 5677 5671 5665 5661 5656 5651 5646 5641 5637 5632 5626 5619 5612 5606 5600 5594 5590
5758 5758 5757 5757 5757 5757 5756 5757 5757 5756 5753 5751 5750 5746 5743 5741 5738 5733 5728 5719 5709 5699 5691 5687 5683 5677 5671 5665 5660 5654 5649 5643 5638 5633 5628 5622 5618 5612 5603 5598 5593 5587 5583 5579
5748 5749 5749 5749 5748 5748 5747 5746 5745 5745 5744 5742 5740 5736 5732 5729 5723 5717 5711 5705 5697 5688 5681 5674 5666 5662 5658 5653 5648 5643 5638 5631 5625 5620 5615 5611 5605 5599 5592 5588 5583 5579 5576 5573
5739 5740 5740 5740 5740 5739 5737 5736 5735 5734 5732 5731 5728 5725 5719 5714 5708 5703 5697 5691 5683 5676 5670 5664 5657 5652 5647 5642 5637 5632 5626 5620 5614 5609 5604 5599 5594 5590 5586 5582 5579 5576 5573 5570
5726 5728 5729 5729 5730 5730 5729 5726 5725 5723 5720 5717 5713 5709 5704 5699 5694 5688 5683 5677 5671 5664 5659 5653 5648 5642 5637 5632 5626 5620 5614 5608 5603 5599 5595 5592 5589 5587 5584 5581 5577 5574 5571 5568
5714 5716 5716 5717 5718 5718 5717 5716 5714 5710 5706 5704 5700 5695 5689 5685 5680 5673 5667 5662 5657 5651 5647 5643 5637 5632 5627 5621 5614 5608 5603 5599 5595 5592 5591 5590 5588 5587 5585 5581 5577 5573 5570 5567
5706 5707 5708 5707 5707 5708 5709 5706 5703 5700 5695 5692 5686 5680 5676 5671 5667 5662 5657 5652 5646 5642 5638 5633 5628 5621 5615 5608 5603 5600 5595 5591 5590 5589 5589 5589 5589 5588 5585 5582 5578 5574 5570 5566
5699 5699 5699 5698 5697 5696 5695 5691 5687 5686 5683 5677 5671 5666 5662 5657 5652 5648 5645 5640 5636 5634 5629 5623 5617 5610 5604 5599 5595 5591 5589 5588 5589 5590 5591 5592 5591 5589 5586 5582 5578 5574 5571 5567
5688 5688 5687 5686 5684 5685 5682 5679 5675 5672 5667 5662 5659 5655 5651 5646 5642 5637 5633 5631 5628 5624 5619 5614 5608 5601 5594 5590 5588 5588 5589 5590 5591 5593 5594 5594 5593 5590 5587 5584 5581 5578 5575 5571
5678 5678 5676 5674 5673 5671 5668 5665 5662 5658 5654 5652 5649 5646 5642 5639 5635 5631 5628 5625 5622 5617 5612 5607 5601 5596 5592 5590 5590 5591 5592 5594 5594 5595 5596 5595 5594 5592 5590 5588 5586 5583 5579 5574
5667 5666 5665 5662 5659 5657 5654 5652 5650 5648 5646 5643 5640 5638 5635 5631 5629 5627 5624 5620 5617 5612 5608 5604 5601 5599 5597 5596 5596 5597 5598 5598 5598 5599 5598 5598 5597 5597 5596 5594 5591 5587 5583 5579
5656 5655 5653 5650 5648 5645 5643 5642 5641 5639 5637 5636 5633 5630 5628 5627 5624 5622 5619 5616 5612 5610 5608 5607 5606 5605 5604 5604 5605 5605 5605 5605 5604 5604 5604 5604 5604 5604 5602 5599 5595 5591 5586 5580
5645 5645 5644 5641 5637 5636 5635 5633 5633 5633 5631 5628 5625 5624 5624 5623 5621 5618 5615 5613 5613 5613 5613 5612 5611 5610 5610 5610 5611 5612 5615 5616 5616 5615 5613 5613 5612 5610 5606 5602 5597 5592 5586 5579